Regional Weather Roundup
Issued by NWS

Home | Current Version | Previous Version | Text Only | Print | Product List | Glossary Off
Versions: 1 2 3 4 5 6 7 8 9 10 11 12 13 14 15 16 17 18 19 20 21 22 23 24 25 26 27 28 29 30 31 32 33 34 35 36 37 38 39 40 41 42 43 44 45 46 47 48 49 50

591
ASUS43 KDTX 190110
RWRMI
MICHIGAN HOURLY REGIONAL WEATHER ROUNDUP
NATIONAL WEATHER SERVICE DETROIT/PONTIAC MI
800 PM EST THU JAN 18 2018

NOTE: "FAIR" INDICATES FEW OR NO CLOUDS BELOW 12,000 FEET WITH NO
SIGNIFICANT WEATHER AND/OR OBSTRUCTION TO VISIBILITY.

MIZ047>049-052>055-059>063-066>070-074>076-081>083-190200-
SOUTHEAST LOWER MICHIGAN

CITY           SKY/WX    TMP DP  RH WIND       PRES   REMARKS
ADRIAN         FAIR      22  14  71 SW10      30.03S WCI  11
ALMA           FAIR      28  17  64 SW12      29.89F WCI  18
ANN ARBOR      FAIR      24  14  65 S17       29.98S WCI  11
BAD AXE        FAIR      28  16  62 SW15G22   29.85F WCI  16
CARO           FAIR      28  17  64 SW16G23   29.87F WCI  16
DETROIT CITY   FAIR      25  15  66 SW17G26   29.97F WCI  12
DETROIT        FAIR      24  15  68 SW17      30.00F WCI  11
FLINT          FAIR      27  14  58 SW15      29.94R WCI  15
GROSSE ILE     FAIR      25  15  67 SW9       30.00F WCI  15
HILLSDALE      FAIR      25  14  63 SW8       30.00R WCI  16
HOWELL         FAIR      27  16  63 SW14G21   29.95R WCI  15

CITY           SKY/WX    TMP DP  RH WIND       PRES   REMARKS
JACKSON        FAIR      27  14  58 SW20      29.98R WCI  13
LAMBERTVILLE   FAIR      26  14  62 SW9G16    30.05R WCI  16
LANSING        FAIR      27  16  63 SW18G25   29.95R WCI  14
LAPEER         FAIR      30  16  55 W13       29.91S WCI  20
MASON          FAIR      27  13  56 SW8G18    29.97R WCI  19
MONROE         FAIR      26  13  59 SW16G23   30.02S WCI  13
MT. CLEMENS    PTCLDY    28  15  58 W9        29.92F WCI  19
PONTIAC        FAIR      26  16  65 SW9       29.93S WCI  17
PORT HOPE        N/A     29  16  58 SW14G26   29.81F WCI  18
PORT HURON     FAIR      25  16  68 SW8G17    29.94F WCI  16
TRI CITIES     FAIR      28  18  66 SW20      29.87F WCI  15
MIDLAND        FAIR      30  20  66 SW8G18    29.87S WCI  22
TROY           FAIR      26  17  68 SW15G22   29.97S WCI  13
SAGINAW HB     FAIR      28  18  64 SW21      29.87F WCI  15
$$
MIZ043>046-050>051-056>058-064>065-071>073-077>080-190200-
SOUTHWEST LOWER MICHIGAN

CITY           SKY/WX    TMP DP  RH WIND       PRES   REMARKS
BATTLE CREEK   FAIR      24  15  68 SW14      30.00R WCI  12
BENTON HARBOR  FAIR      29  18  63 SW13G23   30.02R WCI  19
BIG RAPIDS     FAIR      28  22  76 SW8       29.86R WCI  20
COLDWATER      FAIR      26  15  64 SW14      30.02R WCI  14
FREMONT        FAIR      31  20  63 SW9       29.90R WCI  23
HOLLAND        FAIR      32  23  69 SW24G30   29.96S WCI  19
GRAND RAPIDS   FAIR      28  16  60 SW10      29.95R WCI  19
IONIA          FAIR      28  16  61 SW18      29.92S WCI  15
KALAMAZOO      FAIR      27  16  63 SW15      30.00R WCI  15
LUDINGTON      FAIR      32  27  80 SW13G20   29.87S WCI  22
MARSHALL       FAIR      25  14  64 SW13G21   29.99R WCI  13
MOUNT PLEASANT FAIR      29  20  69 SW12G22   29.86S WCI  20
MUSKEGON       FAIR      34  22  61 SW22G31   29.92S WCI  22
SOUTH HAVEN    FAIR      31  21  66 SW17G24   30.00S WCI  20
$$
MIZ016>042-190200-
NORTHERN LOWER MICHIGAN

CITY           SKY/WX    TMP DP  RH WIND       PRES   REMARKS
ALPENA         CLOUDY    32  25  75 SW6       29.80R WCI  26
BEAVER ISLAND  CLOUDY    33  27  79 SW14      29.78S WCI  23
BELLAIRE       CLOUDY    32  26  80 SW7       29.83R WCI  25
CADILLAC       FAIR      26  22  87 SW10      29.81R WCI  15
CHARLEVOIX     CLOUDY    33  28  81 SW16      29.82S WCI  22
FRANKFORT      CLOUDY    36  29  75 SW8       29.83F WCI  29
GAYLORD        CLOUDY    29  24  82 W18       29.77R WCI  16
GRAYLING       MOCLDY    29  22  76 SW8       29.81R WCI  21
HARBOR SPRINGS CLOUDY    32  28  84 SW12G22   29.78S WCI  23
HOUGHTON LAKE  FAIR      26  21  81 W10       29.83R WCI  16
MANISTEE       FAIR      29  25  85 SW5       29.86R WCI  24
OSCODA         FAIR      27  21  77 SW16      29.81R WCI  15
PELLSTON       CLOUDY    34  27  75 W9        29.78S WCI  27
ROGERS CITY    CLOUDY    30  25  81 CALM      29.79S
TRAVERSE CITY  CLOUDY    32  24  72 SW12G18   29.82R WCI  23
$$
MIZ007>008-015-190200-
EASTERN UPPER MICHIGAN

CITY           SKY/WX    TMP DP  RH WIND       PRES   REMARKS
KINROSS        CLOUDY    29  25  85 VRB7      29.74F WCI  22
MACKINAC ISLAN CLOUDY    31  25  80 W14       29.76F WCI  20
NEWBERRY       CLOUDY    26  23  89 SW8       29.74F WCI  17
S. S. MARIE    CLOUDY    32  26  78 S3        29.73F
MUNISING         N/A     28  23  81 SW8       29.74S WCI  20
$$
MIZ004>006-011>014-085-190200-
CENTRAL UPPER MICHIGAN

CITY           SKY/WX    TMP DP  RH WIND       PRES   REMARKS
MANISTIQUE     CLOUDY    28  23  81 SW3       29.76F
ESCANABA       CLOUDY    29  25  85 VRB3      29.78S
MENOMINEE      FAIR      28  21  75 SW7       29.80R WCI  21
SAWYER-GWINN   CLOUDY    30  25  80 SW3       29.72S
$$
MIZ001>003-009>011-084-190200-
WESTERN UPPER MICHIGAN

CITY           SKY/WX    TMP DP  RH WIND       PRES   REMARKS
IRON MOUNTAIN  MOCLDY    27  22  81 CALM      29.73S
HOUGHTON       CLOUDY    33  26  75 W13       29.69S WCI  24
COPPER HARBOR    N/A     33  29  85 CALM      29.69S
IRONWOOD       CLOUDY    25  22  88 CALM      29.73S
$$

ABBREVIATIONS USED IN REMARKS
   TC - TEMPERATURE IN CELSIUS
  WCI - WIND CHILL INDEX
   HX - HEAT INDEX
  VSB - VISIBILITY





USA.gov is the U.S. government's official web portal to all federal, state and local government web resources and services.